This is the latest recevied weather packets stored in our database for station/object s59zo-6. If no packets are shown the sender has not sent any weather packets the latest 10 day(s).
| Time | Temp. | Humidity | Pressure | Rain* | Wind** | Luminosity | Snow |
|---|---|---|---|---|---|---|---|
| 1787620504 | 16.11° C | 81% | 1017.5 hPa | 0 mm | - | - | - |
| 1787620205 | 16.11° C | 81% | 1017.7 hPa | 0 mm | - | - | - |
| 1787619904 | 16.11° C | 81% | 1017.6 hPa | 0 mm | - | - | - |
| 1787619605 | 16.67° C | 81% | 1017.9 hPa | 0 mm | - | - | - |
| 1787619305 | 16.67° C | 81% | 1017.7 hPa | 0 mm | - | - | - |
| 1787619005 | 16.67° C | 81% | 1017.6 hPa | 0 mm | - | - | - |
| 1787618705 | 16.67° C | 81% | 1017.7 hPa | 0 mm | - | - | - |
| 1787618405 | 16.67° C | 80% | 1017.9 hPa | 0 mm | - | - | - |
| 1787618105 | 16.67° C | 80% | 1017.9 hPa | 0 mm | - | - | - |
| 1787617805 | 16.67° C | 80% | 1018.2 hPa | 0 mm | - | - | - |
| 1787617504 | 16.67° C | 79% | 1018.4 hPa | 0 mm | - | - | - |
| 1787617205 | 16.67° C | 79% | 1018.2 hPa | 0 mm | - | - | - |
| 1787616904 | 17.22° C | 78% | 1018.3 hPa | 0 mm | - | - | - |
| 1787616606 | 17.22° C | 77% | 1018.4 hPa | 0 mm | - | - | - |
| 1787616305 | 17.78° C | 74% | 1018.2 hPa | 0 mm | - | - | - |
| 1787616005 | 17.78° C | 74% | 1018.4 hPa | 0 mm | - | - | - |
| 1787615704 | 17.78° C | 74% | 1018.1 hPa | 0 mm | - | - | - |
| 1787615405 | 17.22° C | 79% | 1017.9 hPa | 0 mm | - | - | - |
| 1787615105 | 17.22° C | 79% | 1018.3 hPa | 0 mm | - | - | - |
| 1787614805 | 17.22° C | 79% | 1018.6 hPa | 0 mm | - | - | - |
| 1787614504 | 17.78° C | 75% | 1019 hPa | 0 mm | - | - | - |
| 1787614206 | 17.78° C | 75% | 1019.1 hPa | 0 mm | - | - | - |
| 1787613905 | 17.78° C | 76% | 1019.3 hPa | 0 mm | - | - | - |
| 1787613605 | 17.22° C | 80% | 1019.3 hPa | 0 mm | - | - | - |
| 1787613305 | 17.22° C | 79% | 1019.5 hPa | 0 mm | - | - | - |
* Rain latest hour (hover to see other rain measurements)
** Current wind speed in m/s (hover to see current wind gust speed)